Myrtle Beach, SC

12:50 AM EST on February 10, 2016 (GMT -0500)
Myrtle Beach International

Weather History for KMYR - December, 2011

Change the Weather History Date:

Wednesday, December 14, 2011

  Actual Average Record
Temperature  
Mean Temperature 50 °F -  
Max Temperature 60 °F 56 °F 75 °F (2001)
Min Temperature 39 °F 37 °F 21 °F (2010)
Degree Days  
Heating Degree Days 16    
Moisture  
Dew Point 37 °F    
Average Humidity 73    
Maximum Humidity 93    
Minimum Humidity 29    
Precipitation  
Precipitation 0.00 in - - ()
Sea Level Pressure  
Sea Level Pressure 30.36 in    
Wind  
Wind Speed 2 mph (East)    
Max Wind Speed 12 mph    
Max Gust Speed -    
Visibility 9 miles    
Events      
Averages and records for this station are not official NWS values.
T = Trace of Precipitation, MM = Missing Value Source: NWS Daily Summary

Daily Weather History Graph

Daily Weather History Graph

Search for Another Location

Airport or City:

Trip Planner

Search our weather history database for the weather conditions in past years. The results will help you decide how hot, cold, wet, or windy it might be!

Date:

Astronomy

Dec. 14, 2011 Rise Set
Actual Time 7:12 AM EST 5:08 PM EST
Civil Twilight 6:44 AM EST 5:36 PM EST
Nautical Twilight 6:13 AM EST 6:07 PM EST
Astronomical Twilight 5:43 AM EST 6:37 PM EST
Moon 9:17 PM EST (12/14) 10:03 AM EST (12/14)
Length of Visible Light 10h 51m
Length of Day
9h 56m
Waning Gibbous, 83% of the Moon is Illuminated
Dec 14
Waning Gibbous
Dec 17
Last Quarter
Dec 24
New
Jan 1
First Quarter
Jan 9
Full

Hourly Weather History & Observations

Time (EST) Temp. Windchill Dew Point Humidity Pressure Visibility Wind Dir Wind Speed Gust Speed Precip Events Conditions
12:15 AM 42.8 °F - 37.4 °F 81% 30.37 in 10.0 mi Calm Calm - N/A   Clear
12:35 AM 41.0 °F - 35.6 °F 81% 30.37 in 10.0 mi Calm Calm - N/A   Clear
12:55 AM 42.8 °F 41.1 °F 35.6 °F 76% 30.37 in 10.0 mi North 3.5 mph - N/A   Clear
1:15 AM 42.8 °F - 35.6 °F 76% 30.37 in 8.0 mi Calm Calm - N/A   Clear
1:35 AM 42.8 °F - 37.4 °F 81% 30.36 in 10.0 mi Calm Calm - N/A   Clear
1:55 AM 41.0 °F - 35.6 °F 81% 30.36 in 5.0 mi Calm Calm - N/A   Clear
2:15 AM 41.0 °F - 35.6 °F 81% 30.35 in 5.0 mi Calm Calm - N/A   Clear
2:35 AM 41.0 °F - 35.6 °F 81% 30.35 in 8.0 mi Calm Calm - N/A   Clear
2:55 AM 39.2 °F - 35.6 °F 87% 30.35 in 10.0 mi Calm Calm - N/A   Clear
3:15 AM 39.2 °F - 33.8 °F 81% 30.35 in 10.0 mi Calm Calm - N/A   Clear
3:35 AM 41.0 °F - 35.6 °F 81% 30.36 in 8.0 mi Calm Calm - N/A   Clear
3:55 AM 39.2 °F - 33.8 °F 81% 30.36 in 10.0 mi Calm Calm - N/A   Clear
4:15 AM 41.0 °F - 35.6 °F 81% 30.36 in 8.0 mi Calm Calm - N/A   Clear
4:35 AM 41.0 °F - 33.8 °F 76% 30.36 in 7.0 mi Calm Calm - N/A   Clear
4:55 AM 39.2 °F - 33.8 °F 81% 30.36 in 10.0 mi Calm Calm - N/A   Clear
5:15 AM 39.2 °F - 37.4 °F 93% 30.35 in 10.0 mi Calm Calm - N/A   Clear
5:35 AM 39.2 °F - 33.8 °F 81% 30.35 in 10.0 mi Calm Calm - N/A   Clear
5:55 AM 39.2 °F - 33.8 °F 81% 30.36 in 8.0 mi Calm Calm - N/A   Clear
6:51 AM 39.2 °F 35.0 °F 33.8 °F 81% 30.38 in 10.0 mi NNW 5.8 mph - N/A   Clear
7:50 AM 39.2 °F 34.2 °F 33.8 °F 81% 30.40 in 10.0 mi NNW 6.9 mph - N/A   Clear
8:45 AM 50.0 °F - 42.8 °F 76% 30.41 in 10.0 mi Calm Calm - N/A   Clear
9:45 AM 55.4 °F - 39.2 °F 54% 30.42 in 10.0 mi East 8.1 mph - N/A   Clear
10:50 AM 57.2 °F - 35.6 °F 44% 30.41 in 10.0 mi East 8.1 mph - N/A   Clear
11:50 AM 57.2 °F - 35.6 °F 44% 30.38 in 10.0 mi East 11.5 mph - N/A   Clear
12:45 PM 59.0 °F - 37.4 °F 45% 30.37 in 10.0 mi Calm Calm - N/A   Clear
1:45 PM 60.8 °F - 28.4 °F 29% 30.35 in 10.0 mi ESE 9.2 mph - N/A   Clear
2:50 PM 59.0 °F - 33.8 °F 39% 30.34 in 10.0 mi SSE 8.1 mph - N/A   Clear
3:50 PM 57.2 °F - 39.2 °F 51% 30.34 in 10.0 mi SSE 8.1 mph - N/A   Scattered Clouds
5:45 PM 51.8 °F - 42.8 °F 71% 30.35 in 10.0 mi Calm Calm - N/A   Clear
6:47 PM 46.4 °F - 39.2 °F 76% 30.35 in 10.0 mi Calm Calm - N/A   Clear
7:45 PM 46.4 °F - 41.0 °F 81% 30.36 in 10.0 mi Calm Calm - N/A   Clear
8:45 PM 46.4 °F 43.5 °F 39.2 °F 76% 30.36 in 10.0 mi ENE 5.8 mph - N/A   Clear
11:15 PM 53.6 °F - 46.4 °F 77% 30.33 in 10.0 mi ESE 4.6 mph - N/A   Clear
11:35 PM 53.6 °F - 46.4 °F 77% 30.33 in 10.0 mi ESE 3.5 mph - N/A   Clear
11:55 PM 46.4 °F - 41.0 °F 81% 30.33 in 10.0 mi Calm Calm - N/A   Clear